When you browse on this site, cookies collect data to enhance your experience and personalize the content and advertising you see.
Visit our Privacy Policy to learn more. By continuing to use the site, you agree to this use of cookies and data.
  • In Sweden
  • List of Countries
  • For 7 days
  • Water Temperature
  • Weather Map
  • Weather Widgets
  • user-avatar
    Login

    Hourly Weather Palkino

    Today, 26 August, Monday

    Time Temperature Precipitation Wind Pressure Humidity
    00:00 +13°C° 0 mm 1 mps 751 mmHg 86%
    01:00 +13°C° 0 mm 1 mps 751 mmHg 87%
    02:00 +13°C° 0 mm 1 mps 752 mmHg 88%
    03:00 +12°C° 0 mm 1 mps 751 mmHg 88%
    04:00 +12°C° 0 mm 1 mps 751 mmHg 89%
    05:00 +11°C° 0 mm 0 mps 751 mmHg 89%
    06:00 +13°C° 0 mm 0 mps 751 mmHg 84%
    07:00 +14°C° 0 mm 0 mps 751 mmHg 79%
    08:00 +16°C° 0 mm 0 mps 752 mmHg 74%
    09:00 +20°C° 0 mm 1 mps 751 mmHg 70%
    10:00 +21°C° 0 mm 1 mps 751 mmHg 66%
    11:00 +22°C° 0 mm 1 mps 751 mmHg 62%
    12:00 +23°C° 0 mm 1 mps 751 mmHg 60%
    13:00 +23°C° 0 mm 1 mps 751 mmHg 58%
    14:00 +24°C° 0 mm 2 mps 751 mmHg 56%
    15:00 +23°C° 0 mm 2 mps 750 mmHg 60%
    16:00 +23°C° 0 mm 1 mps 750 mmHg 65%
    17:00 +23°C° 0 mm 1 mps 749 mmHg 69%
    18:00 +21°C° 0 mm 1 mps 749 mmHg 73%
    19:00 +19°C° 0 mm 1 mps 749 mmHg 77%
    20:00 +18°C° 0 mm 1 mps 749 mmHg 81%
    21:00 +16°C° 0 mm 2 mps 749 mmHg 82%
    22:00 +16°C° 0 mm 2 mps 749 mmHg 82%
    23:00 +16°C° 0 mm 2 mps 749 mmHg 83%

    Tomorrow, 27 August, Tuesday

    Time Temperature Precipitation Wind Pressure Humidity
    00:00 +16°C° 0 mm 2 mps 748 mmHg 83%
    01:00 +15°C° 0 mm 2 mps 748 mmHg 84%
    02:00 +14°C° 0 mm 3 mps 748 mmHg 85%
    03:00 +14°C° 0 mm 3 mps 748 mmHg 87%
    04:00 +14°C° 0 mm 3 mps 748 mmHg 89%
    05:00 +14°C° 0 mm 3 mps 748 mmHg 92%
    06:00 +16°C° 0 mm 3 mps 748 mmHg 90%
    07:00 +17°C° 0 mm 3 mps 748 mmHg 88%
    08:00 +19°C° 0 mm 3 mps 748 mmHg 86%
    09:00 +20°C° 0 mm 4 mps 748 mmHg 81%
    10:00 +21°C° 0 mm 4 mps 748 mmHg 76%
    11:00 +22°C° 0 mm 4 mps 748 mmHg 71%
    12:00 +22°C° 0 mm 4 mps 748 mmHg 69%
    13:00 +23°C° 0 mm 4 mps 748 mmHg 67%
    14:00 +23°C° 0 mm 4 mps 748 mmHg 65%
    15:00 +23°C° 0 mm 4 mps 748 mmHg 68%
    16:00 +22°C° 0 mm 3 mps 748 mmHg 71%
    17:00 +22°C° 0 mm 3 mps 747 mmHg 74%
    18:00 +20°C° 0 mm 3 mps 748 mmHg 78%
    19:00 +19°C° 0 mm 3 mps 748 mmHg 81%
    20:00 +17°C° 0 mm 3 mps 748 mmHg 85%
    21:00 +16°C° 0 mm 3 mps 748 mmHg 85%
    22:00 +15°C° 0 mm 2 mps 748 mmHg 86%
    23:00 +14°C° 0 mm 2 mps 748 mmHg 87%

    Day after tomorrow, 28 August, Wednesday

    Time Temperature Precipitation Wind Pressure Humidity
    00:00 +14°C° 0 mm 2 mps 749 mmHg 88%
    01:00 +13°C° 0 mm 2 mps 749 mmHg 89%
    02:00 +13°C° 0 mm 2 mps 749 mmHg 89%
    03:00 +12°C° 0 mm 2 mps 749 mmHg 91%
    04:00 +12°C° 0 mm 2 mps 749 mmHg 92%
    05:00 +12°C° 0 mm 2 mps 749 mmHg 93%
    06:00 +13°C° 0 mm 2 mps 749 mmHg 90%
    07:00 +14°C° 0 mm 2 mps 750 mmHg 86%
    08:00 +16°C° 0 mm 3 mps 750 mmHg 83%
    09:00 +17°C° 0 mm 3 mps 750 mmHg 77%
    10:00 +18°C° 0 mm 3 mps 750 mmHg 70%
    11:00 +19°C° 0 mm 3 mps 750 mmHg 64%
    12:00 +19°C° 0 mm 3 mps 750 mmHg 62%
    13:00 +20°C° 0 mm 3 mps 750 mmHg 59%
    14:00 +20°C° 0 mm 3 mps 750 mmHg 57%
    15:00 +19°C° 0 mm 3 mps 750 mmHg 60%
    16:00 +19°C° 0 mm 3 mps 750 mmHg 64%
    17:00 +19°C° 0 mm 2 mps 749 mmHg 67%
    18:00 +17°C° 0 mm 3 mps 750 mmHg 68%
    19:00 +14°C° 0 mm 3 mps 750 mmHg 68%
    20:00 +11°C° 0 mm 3 mps 750 mmHg 68%
    21:00 +11°C° 0 mm 3 mps 750 mmHg 70%
    22:00 +10°C° 0 mm 3 mps 750 mmHg 71%
    23:00 +9°C° 0 mm 2 mps 750 mmHg 73%

    29 August, Thursday

    Time Temperature Precipitation Wind Pressure Humidity
    00:00 +9°C° 0 mm 2 mps 750 mmHg 73%
    01:00 +8°C° 0 mm 2 mps 750 mmHg 74%
    02:00 +8°C° 0 mm 2 mps 750 mmHg 75%
    03:00 +7°C° 0 mm 2 mps 750 mmHg 76%
    04:00 +7°C° 0 mm 2 mps 751 mmHg 76%
    05:00 +7°C° 0 mm 2 mps 751 mmHg 76%
    06:00 +8°C° 0 mm 2 mps 751 mmHg 74%
    07:00 +10°C° 0 mm 2 mps 751 mmHg 71%
    08:00 +13°C° 0 mm 2 mps 751 mmHg 69%
    09:00 +14°C° 0 mm 2 mps 751 mmHg 64%
    10:00 +16°C° 0 mm 2 mps 751 mmHg 59%
    11:00 +17°C° 0 mm 2 mps 751 mmHg 54%
    12:00 +18°C° 0 mm 2 mps 750 mmHg 52%
    13:00 +18°C° 0 mm 2 mps 750 mmHg 50%
    14:00 +19°C° 0 mm 2 mps 750 mmHg 48%
    15:00 +19°C° 0 mm 2 mps 750 mmHg 52%
    16:00 +18°C° 0 mm 2 mps 749 mmHg 57%
    17:00 +19°C° 0 mm 1 mps 749 mmHg 62%
    18:00 +16°C° 0 mm 1 mps 749 mmHg 63%
    19:00 +14°C° 0 mm 1 mps 749 mmHg 65%
    20:00 +12°C° 0 mm 1 mps 749 mmHg 67%
    21:00 +12°C° 0 mm 1 mps 749 mmHg 68%
    22:00 +11°C° 0 mm 1 mps 749 mmHg 69%
    23:00 +11°C° 0 mm 1 mps 749 mmHg 70%

    30 August, Friday

    Time Temperature Precipitation Wind Pressure Humidity
    00:00 +11°C° 0 mm 1 mps 749 mmHg 71%
    01:00 +11°C° 0 mm 1 mps 749 mmHg 73%
    02:00 +10°C° 0 mm 1 mps 749 mmHg 74%
    03:00 +10°C° 0 mm 1 mps 749 mmHg 75%
    04:00 +10°C° 0 mm 1 mps 749 mmHg 75%
    05:00 +10°C° 0 mm 1 mps 748 mmHg 76%
    06:00 +11°C° 0 mm 1 mps 749 mmHg 73%
    07:00 +13°C° 0 mm 1 mps 749 mmHg 70%
    08:00 +15°C° 0 mm 1 mps 749 mmHg 66%
    09:00 +17°C° 0 mm 2 mps 749 mmHg 63%
    10:00 +18°C° 0 mm 2 mps 749 mmHg 60%
    11:00 +19°C° 0 mm 2 mps 749 mmHg 57%
    12:00 +20°C° 0 mm 2 mps 749 mmHg 57%
    13:00 +21°C° 0 mm 2 mps 748 mmHg 57%
    14:00 +21°C° 0 mm 3 mps 748 mmHg 57%
    15:00 +21°C° 0 mm 2 mps 748 mmHg 61%
    16:00 +21°C° 0 mm 2 mps 748 mmHg 65%
    17:00 +22°C° 0 mm 1 mps 747 mmHg 68%
    18:00 +20°C° 0 mm 1 mps 747 mmHg 73%
    19:00 +18°C° 0 mm 1 mps 747 mmHg 77%
    20:00 +15°C° 0 mm 1 mps 747 mmHg 82%
    21:00 +15°C° 0 mm 1 mps 747 mmHg 83%
    22:00 +14°C° 0 mm 2 mps 747 mmHg 85%
    23:00 +14°C° 0 mm 2 mps 748 mmHg 86%

    31 August, Saturday

    Time Temperature Precipitation Wind Pressure Humidity
    00:00 +13°C° 0 mm 2 mps 748 mmHg 86%
    01:00 +13°C° 0 mm 2 mps 748 mmHg 86%
    02:00 +13°C° 0 mm 2 mps 748 mmHg 87%
    03:00 +13°C° 0 mm 2 mps 748 mmHg 88%
    04:00 +12°C° 0 mm 2 mps 747 mmHg 89%
    05:00 +12°C° 0 mm 2 mps 747 mmHg 90%
    06:00 +13°C° 0 mm 2 mps 747 mmHg 86%
    07:00 +14°C° 0 mm 3 mps 747 mmHg 82%
    08:00 +16°C° 0 mm 3 mps 747 mmHg 78%
    09:00 +18°C° 0 mm 3 mps 747 mmHg 74%
    10:00 +19°C° 0 mm 3 mps 747 mmHg 70%
    11:00 +20°C° 0 mm 4 mps 748 mmHg 66%
    12:00 +21°C° 0 mm 4 mps 747 mmHg 63%
    13:00 +22°C° 0 mm 4 mps 747 mmHg 60%
    14:00 +23°C° 0 mm 4 mps 747 mmHg 57%
    15:00 +22°C° 0 mm 3 mps 747 mmHg 61%
    16:00 +22°C° 0 mm 3 mps 747 mmHg 65%
    17:00 +23°C° 0 mm 2 mps 746 mmHg 69%
    18:00 +20°C° 0 mm 2 mps 746 mmHg 73%
    19:00 +18°C° 0 mm 2 mps 746 mmHg 78%
    20:00 +16°C° 0 mm 2 mps 746 mmHg 82%
    21:00 +16°C° 0 mm 2 mps 746 mmHg 83%
    22:00 +15°C° 0 mm 2 mps 746 mmHg 83%
    23:00 +15°C° 0 mm 2 mps 746 mmHg 83%
    Show more